Tracking 19651 objects as of 23-Apr-2019
HD Live streaming from Space Station
objects crossing your sky now

THORAD AGENA D DEB

Track THORAD AGENA D DEB now!
10-day predictions


NORAD ID: 42536
Int'l Code: 1970-025SS
Perigee: 871.7 km
Apogee: 974.5 km
Inclination: 99.5 °
Period: 103.3 minutes
Semi major axis: 7294 km
RCS: Unknown
Launch date: April 8, 1970
Source: United States (US)
Launch site: AIR FORCE WESTERN TEST RANGE (AFWTR)

Note: This is SATELLITE DEBRIS
aabbcc
Your satellite tracking list
Your tracking list is empty




NASA's NSSDC Master Catalog

Two Line Element Set (TLE):
1 42536U 70025SS  19110.93372213  .00000796  00000-0  62925-3 0  9995
2 42536  99.5284 278.6270 0070417 243.9860 115.4036 13.93625027274799
Source of the keplerian elements: AFSPC